| time (UTC) | temp F | wind direction | speed MPH | gust MPH | rain 1hr in | rain 24hr in | rain mn in | humidity % | barometer mb |
| 20260906220017 | 78 | 5 | 0.0 | 1.0 | 0.00 | 0.00 | 0.00 | 50 | 1017.5 |
| 20260906214512 | 78 | 340 | 0.0 | 2.0 | 0.00 | 0.00 | 0.00 | 51 | 1017.5 |
| 20260906213015 | 79 | 360 | 0.0 | 2.0 | 0.00 | 0.00 | 0.00 | 51 | 1017.5 |
| 20260906211510 | 79 | 327 | 0.0 | 0.0 | 0.00 | 0.00 | 0.00 | 51 | 1017.6 |
| 20260906210016 | 79 | 333 | 0.0 | 0.0 | 0.00 | 0.00 | 0.00 | 49 | 1017.5 |
| 20260906204513 | 78 | 336 | 0.0 | 2.0 | 0.00 | 0.00 | 0.00 | 50 | 1017.6 |
| 20260906203026 | 79 | 132 | 1.0 | 4.0 | 0.00 | 0.00 | 0.00 | 51 | 1017.4 |
| 20260906201516 | 79 | 258 | 0.0 | 3.0 | 0.00 | 0.00 | 0.00 | 50 | 1017.3 |
| 20260906200013 | 79 | 9 | 1.0 | 3.0 | 0.00 | 0.00 | 0.00 | 51 | 1017.6 |
| 20260906194514 | 80 | 5 | 0.0 | 3.0 | 0.00 | 0.00 | 0.00 | 50 | 1017.4 |
| 20260906193012 | 80 | 9 | 1.0 | 4.0 | 0.00 | 0.00 | 0.00 | 52 | 1017.6 |
| 20260906191518 | 79 | 360 | 2.0 | 4.0 | 0.00 | 0.00 | 0.00 | 52 | 1017.7 |
| 20260906190015 | 79 | 16 | 0.0 | 4.0 | 0.00 | 0.00 | 0.00 | 52 | 1017.6 |
| 20260906184515 | 78 | 26 | 1.0 | 3.0 | 0.00 | 0.00 | 0.00 | 54 | 1018.0 |
| 20260906183025 | 78 | 352 | 1.0 | 3.0 | 0.00 | 0.00 | 0.00 | 54 | 1018.0 |
| 20260906181532 | 78 | 9 | 0.0 | 5.0 | 0.00 | 0.00 | 0.00 | 53 | 1018.2 |
| 20260906180026 | 78 | 344 | 2.0 | 6.0 | 0.00 | 0.00 | 0.00 | 52 | 1018.1 |
| 20260906174514 | 78 | 336 | 0.0 | 5.0 | 0.00 | 0.00 | 0.00 | 56 | 1018.1 |
| 20260906173016 | 78 | 5 | 1.0 | 4.0 | 0.00 | 0.00 | 0.00 | 54 | 1018.3 |
| 20260906171518 | 77 | 5 | 1.0 | 4.0 | 0.00 | 0.00 | 0.00 | 54 | 1018.5 |
| 20260906170020 | 77 | 9 | 0.0 | 4.0 | 0.00 | 0.00 | 0.00 | 55 | 1018.7 |
| 20260906164520 | 77 | 337 | 0.0 | 2.0 | 0.00 | 0.00 | 0.00 | 58 | 1018.8 |
| 20260906163019 | 76 | 340 | 0.0 | 3.0 | 0.00 | 0.00 | 0.00 | 60 | 1018.8 |
| 20260906161535 | 76 | 47 | 0.0 | 2.0 | 0.00 | 0.00 | 0.00 | 60 | 1018.9 |
| 20260906160017 | 75 | 360 | 1.0 | 4.0 | 0.00 | 0.00 | 0.00 | 58 | 1018.8 |
| 20260906154523 | 74 | 37 | 1.0 | 3.0 | 0.00 | 0.00 | 0.00 | 62 | 1018.9 |
| 20260906153038 | 73 | 352 | 1.0 | 4.0 | 0.00 | 0.00 | 0.00 | 63 | 1018.8 |
| 20260906151523 | 73 | 273 | 1.0 | 3.0 | 0.00 | 0.00 | 0.00 | 66 | 1018.7 |
| 20260906150023 | 71 | 22 | 2.0 | 4.0 | 0.00 | 0.00 | 0.00 | 68 | 1018.7 |
| 20260906144525 | 70 | 352 | 2.0 | 3.0 | 0.00 | 0.00 | 0.00 | 70 | 1018.6 |
| 20260906143019 | 70 | 335 | 0.0 | 3.0 | 0.00 | 0.00 | 0.00 | 72 | 1018.4 |
| 20260906141519 | 69 | 352 | 1.0 | 2.0 | 0.00 | 0.00 | 0.00 | 73 | 1018.4 |
| 20260906140012 | 68 | 344 | 0.0 | 2.0 | 0.00 | 0.00 | 0.00 | 73 | 1018.3 |
| 20260906134508 | 67 | 261 | 0.0 | 2.0 | 0.00 | 0.00 | 0.00 | 74 | 1018.1 |
| 20260906133031 | 67 | 5 | 1.0 | 3.0 | 0.00 | 0.00 | 0.00 | 74 | 1018.0 |
| 20260906131523 | 66 | 360 | 0.0 | 3.0 | 0.00 | 0.00 | 0.00 | 75 | 1018.0 |
| 20260906130026 | 65 | 360 | 0.0 | 3.0 | 0.00 | 0.00 | 0.00 | 75 | 1017.9 |
| 20260906124524 | 64 | 350 | 0.0 | 3.0 | 0.00 | 0.00 | 0.00 | 77 | 1017.9 |
| 20260906123023 | 63 | 352 | 0.0 | 2.0 | 0.00 | 0.00 | 0.00 | 78 | 1017.6 |
| 20260906121531 | 62 | 345 | 0.0 | 2.0 | 0.00 | 0.00 | 0.00 | 80 | 1017.5 |
| 20260906120026 | 62 | 333 | 0.0 | 0.0 | 0.00 | 0.01 | 0.00 | 81 | 1017.2 |
| 20260906114531 | 62 | 333 | 0.0 | 0.0 | 0.00 | 0.02 | 0.00 | 82 | 1017.1 |
| 20260906113029 | 62 | 333 | 0.0 | 0.0 | 0.00 | 0.03 | 0.00 | 82 | 1017.0 |
| 20260906111531 | 62 | 333 | 0.0 | 0.0 | 0.00 | 0.04 | 0.00 | 81 | 1016.8 |
| 20260906110024 | 62 | 333 | 0.0 | 0.0 | 0.00 | 0.07 | 0.00 | 81 | 1016.8 |
| 20260906104523 | 62 | 333 | 0.0 | 0.0 | 0.00 | 0.11 | 0.00 | 80 | 1016.8 |
| 20260906103028 | 63 | 333 | 0.0 | 2.0 | 0.00 | 0.16 | 0.00 | 80 | 1016.6 |
| 20260906101534 | 63 | 333 | 0.0 | 0.0 | 0.00 | 0.22 | 0.00 | 79 | 1016.6 |
| 20260906100033 | 64 | 333 | 0.0 | 0.0 | 0.00 | 0.26 | 0.00 | 79 | 1016.5 |
| 20260906094530 | 64 | 333 | 0.0 | 0.0 | 0.00 | 0.47 | 0.00 | 78 | 1016.5 |
| 20260906093038 | 65 | 333 | 0.0 | 0.0 | 0.00 | 0.51 | 0.00 | 77 | 1016.4 |
| 20260906091528 | 65 | 325 | 0.0 | 0.0 | 0.00 | 0.52 | 0.00 | 76 | 1016.4 |
| 20260906090021 | 66 | 262 | 0.0 | 0.0 | 0.00 | 0.54 | 0.00 | 76 | 1016.4 |
| 20260906084518 | 66 | 262 | 0.0 | 0.0 | 0.00 | 0.55 | 0.00 | 76 | 1016.2 |
| 20260906083029 | 66 | 262 | 0.0 | 0.0 | 0.00 | 0.55 | 0.00 | 75 | 1016.1 |
| 20260906081531 | 66 | 262 | 0.0 | 0.0 | 0.00 | 0.57 | 0.00 | 75 | 1016.2 |
| 20260906080038 | 67 | 262 | 0.0 | 0.0 | 0.00 | 0.57 | 0.00 | 75 | 1016.1 |
| 20260906074532 | 67 | 262 | 0.0 | 1.0 | 0.00 | 0.57 | 0.00 | 74 | 1016.1 |
| 20260906073027 | 67 | 309 | 0.0 | 2.0 | 0.00 | 0.57 | 0.00 | 74 | 1016.0 |
| 20260906071528 | 67 | 352 | 0.0 | 0.0 | 0.00 | 0.57 | 0.00 | 73 | 1016.0 |
| 20260906070018 | 68 | 349 | 0.0 | 0.0 | 0.00 | 0.57 | 0.00 | 72 | 1016.0 |
| 20260906064531 | 68 | 339 | 0.0 | 1.0 | 0.00 | 0.57 | 0.00 | 72 | 1016.2 |
| 20260906063034 | 68 | 317 | 0.0 | 2.0 | 0.00 | 0.57 | 0.00 | 72 | 1016.1 |
| 20260906061531 | 68 | 352 | 0.0 | 2.0 | 0.00 | 0.57 | 0.00 | 73 | 1016.1 |
| 20260906060032 | 68 | 260 | 0.0 | 2.0 | 0.00 | 0.57 | 0.00 | 73 | 1016.0 |
| 20260906054530 | 68 | 267 | 0.0 | 0.0 | 0.00 | 0.57 | 0.00 | 75 | 1015.8 |
| 20260906053025 | 68 | 265 | 0.0 | 2.0 | 0.00 | 0.57 | 0.00 | 76 | 1015.8 |
| 20260906051518 | 68 | 345 | 1.0 | 2.0 | 0.00 | 0.57 | 0.00 | 77 | 1015.7 |
| 20260906050014 | 68 | 360 | 0.0 | 2.0 | 0.00 | 0.57 | 0.00 | 78 | 1015.6 |
| 20260906044516 | 69 | 349 | 0.0 | 0.0 | 0.00 | 0.57 | 0.00 | 79 | 1015.5 |
| 20260906043033 | 69 | 340 | 0.0 | 0.0 | 0.00 | 0.57 | 0.00 | 80 | 1015.2 |
| 20260906041529 | 70 | 5 | 0.0 | 0.0 | 0.00 | 0.57 | 0.00 | 80 | 1015.1 |
| 20260906040031 | 70 | 352 | 0.0 | 0.0 | 0.00 | 0.57 | 0.00 | 80 | 1015.2 |
| 20260906034546 | 71 | 338 | 0.0 | 0.0 | 0.00 | 0.57 | 0.57 | 79 | 1015.4 |
| 20260906033023 | 71 | 347 | 0.0 | 0.0 | 0.00 | 0.57 | 0.57 | 81 | 1015.4 |
| 20260906031526 | 72 | 9 | 0.0 | 0.0 | 0.00 | 0.57 | 0.57 | 82 | 1015.3 |
| 20260906030011 | 72 | 9 | 0.0 | 0.0 | 0.00 | 0.57 | 0.57 | 84 | 1015.4 |
| 20260906024536 | 73 | 9 | 0.0 | 0.0 | 0.00 | 0.57 | 0.57 | 85 | 1015.4 |
| 20260906023032 | 73 | 352 | 0.0 | 0.0 | 0.00 | 0.57 | 0.57 | 85 | 1015.4 |
| 20260906021538 | 73 | 352 | 0.0 | 0.0 | 0.00 | 0.57 | 0.57 | 85 | 1015.3 |
| 20260906020028 | 74 | 352 | 0.0 | 0.0 | 0.00 | 0.57 | 0.57 | 85 | 1014.9 |
| 20260906014530 | 74 | 352 | 0.0 | 2.0 | 0.00 | 0.57 | 0.57 | 84 | 1014.6 |
| 20260906013020 | 75 | 20 | 0.0 | 2.0 | 0.00 | 0.57 | 0.57 | 83 | 1014.5 |
| 20260906011533 | 75 | 5 | 1.0 | 2.0 | 0.00 | 0.57 | 0.57 | 82 | 1014.3 |
| 20260906010040 | 75 | 9 | 0.0 | 0.0 | 0.00 | 0.57 | 0.57 | 81 | 1014.2 |
| 20260906004533 | 76 | 360 | 0.0 | 0.0 | 0.00 | 0.57 | 0.57 | 82 | 1014.3 |
| 20260906003032 | 76 | 13 | 0.0 | 0.0 | 0.00 | 0.57 | 0.57 | 81 | 1014.3 |
| 20260906001543 | 76 | 349 | 0.0 | 0.0 | 0.00 | 0.57 | 0.57 | 82 | 1014.2 |
| 20260906000025 | 77 | 349 | 0.0 | 0.0 | 0.00 | 0.57 | 0.57 | 82 | 1014.2 |
| 20260905234517 | 77 | 349 | 0.0 | 0.0 | 0.00 | 0.57 | 0.57 | 80 | 1014.4 |
| 20260905233035 | 78 | 349 | 0.0 | 0.0 | 0.00 | 0.57 | 0.57 | 77 | 1014.1 |
| 20260905231532 | 79 | 349 | 0.0 | 0.0 | 0.00 | 0.57 | 0.57 | 76 | 1013.8 |
| 20260905230034 | 79 | 349 | 0.0 | 0.0 | 0.00 | 0.57 | 0.57 | 74 | 1013.7 |
| 20260905224530 | 80 | 344 | 0.0 | 0.0 | 0.00 | 0.57 | 0.57 | 75 | 1013.5 |
| 20260905223042 | 80 | 344 | 0.0 | 0.0 | 0.00 | 0.57 | 0.57 | 74 | 1013.4 |
| 20260905221526 | 80 | 344 | 0.0 | 0.0 | 0.00 | 0.57 | 0.57 | 72 | 1013.3 |